星链-36273(STARLINK-36273)

导读

STARLINK-36273(NORAD编号68166)是美国SpaceX公司星链(Starlink)低轨互联网星座中的一颗卫星,隶属于全球最大商业卫星通信项目。星链计划目标部署超4.2万颗近地卫星,为全球偏远地区、海洋航空等场景提供高速低时延互联网接入。 该卫星运行在300-550公里近地轨道,采用Ku/Ka频段,是星链星座规模化组网的组成单元。为提升太空安全,SpaceX计划2026年下调数千颗星链卫星轨道高度,STARLINK-36273也遵循项目统一的碰撞规避和脱轨设计,故障后可快速再入大气层减少轨道碎片风险。

Basic Information
目录编号:
68166
目录名称:
STARLINK-36273
国际标识:
2026-049AA
轨道中心:
EARTH
卫星名称:
星链-36273
卫星全名:
星链-36273(STARLINK-36273)
卫星状态:
在轨 (已飞行176 天)
发射日期:
2026-03-13 UTC
国别 :
美国 (US)
星等 :
--
Orbit Information
数据来源 国际轨道数据
星历时间: 2026-09-05T08:25:34+0800
14小时前
查看轨道信息
半长轴: 6843.668km
偏心率: 0.0001402
轨道倾角: 97.286°
近地点辐角 110.174°
升交点赤经 269.038°
平近点角 249.966°
近地点: 464.571km
远地点: 466.491km
周期: 93.906分钟
每日圈数: 15.334491
Detailed Information
固有亮度:
5
最大亮度:
2.5
卫星平台:
Starlink V1.0
覆盖范围:
全球
运营商:
太空探索技术公司
运营商所在国:
美国
制造商(研发单位):
太空探索技术公司
制造商所在国:
美国
使用方式:
暂无
Satellite Introduction
Starlink 计划是 SpaceX 推出的全球卫星互联网项目,通过发射低轨道卫星,为全球尤其是偏远地区提供高速、低延迟的互联网服务。自 2019 年起,Starlink 已部署数千颗卫星,旨在缩小全球数字鸿沟,推动互联网普及。该项目还为军事、航空等行业提供通信支持,带来广泛经济效益。
2D Orbit Map
3D Orbit Map
Orbit Altitude Analysis Chart
Orbit Inclination Analysis Chart
Orbit Comprehensive Analysis Chart
View Comprehensive Chart
Conjunction Data List
Event ID Objects TCA Miss Dist (km) Collision Risk Probability Collision Risk Index (CRI) Action
CDM_260906-093105-336406-816621
2026-09-06T
09:31:16+0000
2.001 km
极远距离
2.664735E-6 低风险 0.44
CDM_260906-184405-674806-816623
OBJECT F (56748)
2026-09-06T
18:44:32+0000
2.822 km
极远距离
1.467902E-6 低风险 0.38
CDM_260908-004106-280806-816621
2026-09-08T
00:41:52+0000
2.798 km
极远距离
1.251885E-6 低风险 0.37
CDM_260903-200505-736906-816621
2026-09-03T
20:05:50+0000
2.982 km
极远距离
9.837511E-7 极低风险 0.35